KY0TEQ-13 Weather Reports


time (UTC)temp
F
wind
direction
speed
knots
gust
knots
rain 1hr
in
rain 24hr
in
rain mn
in
humidity
%
barometer
mb
20260505122641 45 242 2.6 2.6 0.00 0.00 0.00 35 1297.9
20260505122138 46 217 1.7 2.6 0.00 0.00 0.00 35 1297.8
20260505121634 46 290 1.7 2.6 0.00 0.00 0.00 34 1297.8
20260505121132 46 247 3.5 7.8 0.00 0.00 0.00 33 1297.4
20260505120627 47 248 2.6 5.2 0.00 0.00 0.00 33 1297.7
20260505120123 46 280 4.3 7.0 0.00 0.00 0.00 33 1297.4
20260505115617 46 231 3.5 7.0 0.00 0.00 0.00 33 1297.7
20260505115115 46 277 6.1 7.8 0.00 0.00 0.00 34 1297.6
20260505114612 45 230 4.3 6.1 0.00 0.00 0.00 35 1297.8
20260505114108 45 223 4.3 6.1 0.00 0.00 0.00 34 1297.8
20260505113605 46 226 6.1 7.8 0.00 0.00 0.00 34 1297.8
20260505113101 46 232 5.2 7.8 0.00 0.00 0.00 34 1297.7
20260505112558 46 250 5.2 7.0 0.00 0.00 0.00 34 1297.8
20260505112056 46 237 4.3 7.0 0.00 0.00 0.00 33 1297.6
20260505111555 45 231 4.3 7.8 0.00 0.00 0.00 33 1297.6
20260505111052 45 240 5.2 7.8 0.00 0.00 0.00 35 1297.4
20260505110548 46 250 4.3 7.8 0.00 0.00 0.00 34 1297.7
20260505102021 46 249 3.5 7.0 0.00 0.00 0.00 32 1297.4
20260505101519 46 253 4.3 5.2 0.00 0.00 0.00 32 1297.4
20260505101015 46 225 3.5 7.0 0.00 0.00 0.00 32 1297.3
20260505100513 47 227 3.5 7.0 0.00 0.00 0.00 31 1297.3
20260505100010 47 244 4.3 7.0 0.00 0.00 0.00 31 1297.3
20260505095505 47 239 4.3 5.2 0.00 0.00 0.00 31 1297.3
20260505095001 47 226 5.2 7.0 0.00 0.00 0.00 32 1297.6
20260505094458 47 216 5.2 7.0 0.00 0.00 0.00 31 1297.4
20260505093955 47 209 4.3 7.0 0.00 0.00 0.00 32 1297.3
20260505093451 47 235 5.2 7.0 0.00 0.00 0.00 31 1297.1
20260505092949 47 235 4.3 8.7 0.00 0.00 0.00 31 1297.1
20260505092446 47 227 5.2 7.0 0.00 0.00 0.00 32 1297.0
20260505091944 47 218 5.2 8.7 0.00 0.00 0.00 30 1297.3
20260505091441 47 245 6.1 8.7 0.00 0.00 0.00 30 1297.3
20260505090939 46 229 6.1 7.0 0.00 0.00 0.00 32 1297.4
20260505090437 47 209 4.3 6.1 0.00 0.00 0.00 32 1297.4
20260505085934 47 223 5.2 5.2 0.00 0.00 0.00 31 1297.4
20260505085432 48 223 3.5 6.1 0.00 0.00 0.00 30 1297.7
20260505084930 48 225 4.3 7.8 0.00 0.00 0.00 30 1297.4
20260505084428 47 227 3.5 5.2 0.00 0.00 0.00 30 1297.6
20260505083925 48 241 3.5 6.1 0.00 0.00 0.00 29 1297.4
20260505083423 47 219 5.2 6.1 0.00 0.00 0.00 28 1297.8
20260505082919 46 234 2.6 3.5 0.00 0.00 0.00 31 1297.9
20260505082415 47 213 3.5 3.5 0.00 0.00 0.00 29 1297.9
20260505081912 48 216 2.6 3.5 0.00 0.00 0.00 29 1298.1
20260505081409 48 200 1.7 1.7 0.00 0.00 0.00 27 1298.3
20260505080905 48 185 0.9 0.9 0.00 0.00 0.00 28 1298.2
20260505080401 48 223 0.9 1.7 0.00 0.00 0.00 28 1298.2
20260505075857 47 242 1.7 1.7 0.00 0.00 0.00 29 1298.3
20260505075354 49 212 0.9 1.7 0.00 0.00 0.00 29 1298.2
20260505074851 49 170 2.6 2.6 0.00 0.00 0.00 25 1298.3
20260505074343 49 165 0.9 1.7 0.00 0.00 0.00 25 1298.2
20260505073840 49 192 0.9 1.7 0.00 0.00 0.00 26 1298.4
20260505073338 48 176 1.7 1.7 0.00 0.00 0.00 26 1298.2
20260505072835 49 200 1.7 3.5 0.00 0.00 0.00 27 1298.3
20260505072331 49 207 1.7 2.6 0.00 0.00 0.00 26 1298.2
20260505071827 49 208 2.6 3.5 0.00 0.00 0.00 25 1298.3
20260505071323 49 211 2.6 3.5 0.00 0.00 0.00 25 1298.3
20260505070822 50 207 3.5 3.5 0.00 0.00 0.00 25 1298.3
20260505070318 50 176 1.7 3.5 0.00 0.00 0.00 24 1298.3
20260505065813 51 224 2.6 5.2 0.00 0.00 0.00 23 1298.2
20260505065310 51 219 2.6 3.5 0.00 0.00 0.00 25 1298.2
20260505064807 51 214 4.3 5.2 0.00 0.00 0.00 24 1297.9
20260505064304 51 238 1.7 7.0 0.00 0.00 0.00 24 1297.7
20260505063803 50 207 1.7 3.5 0.00 0.00 0.00 25 1297.9
20260505063258 51 192 0.0 0.9 0.00 0.00 0.00 26 1297.9
20260505062755 51 233 1.7 1.7 0.00 0.00 0.00 26 1297.8
20260505062253 51 189 0.9 1.7 0.00 0.00 0.00 27 1297.9
20260505061749 51 260 1.7 2.6 0.00 0.00 0.00 26 1297.8
20260505061247 50 295 1.7 3.5 0.00 0.00 0.00 30 1297.7
20260505060744 50 292 0.9 2.6 0.00 0.00 0.00 29 1297.6
20260505060242 50 292 1.7 5.2 0.00 0.00 0.00 29 1297.8
20260505055736 51 220 1.7 3.5 0.00 0.00 0.00 29 1297.7
20260505055232 51 284 1.7 3.5 0.00 0.00 0.00 29 1297.4
20260505054730 51 276 1.7 3.5 0.00 0.00 0.00 31 1297.7
20260505054228 50 242 2.6 2.6 0.00 0.00 0.00 31 1297.6
20260505053726 50 221 1.7 3.5 0.00 0.00 0.00 33 1297.6
20260505053222 48 263 2.6 3.5 0.00 0.00 0.00 35 1297.7
20260505052719 44 261 1.7 2.6 0.00 0.00 0.00 43 1297.7
20260505052216 45 316 1.7 1.7 0.00 0.00 0.00 47 1297.7
20260505051713 48 185 0.9 0.9 0.00 0.00 0.00 38 1297.4
20260505051211 47 272 0.9 1.7 0.00 0.00 0.00 37 1297.3
20260505050709 46 168 0.0 0.0 0.00 0.00 0.00 39 1297.4
20260505050207 46 294 0.9 1.7 0.00 0.00 0.00 41 1297.3
20260505041636 47 309 2.6 2.6 0.00 0.00 0.00 40 1297.4
20260505041134 47 314 1.7 1.7 0.00 0.00 0.00 41 1297.3
20260505040630 48 320 1.7 1.7 0.00 0.00 0.00 36 1297.4
20260505040128 48 312 1.7 1.7 0.00 0.00 0.00 37 1297.2
20260505035624 47 335 1.7 1.7 0.00 0.00 0.00 37 1297.4
20260505035120 49 298 0.9 1.7 0.00 0.00 0.00 38 1297.4
20260505034617 50 68 0.9 2.6 0.00 0.00 0.00 33 1297.4
20260505034114 51 16 2.6 2.6 0.00 0.00 0.00 32 1297.3
20260505033611 50 18 1.7 1.7 0.00 0.00 0.00 33 1297.6
20260505033110 51 18 0.9 2.6 0.00 0.00 0.00 32 1297.3
20260505032607 51 7 1.7 2.6 0.00 0.00 0.00 32 1297.1
20260505032104 51 23 1.7 2.6 0.00 0.00 0.00 31 1297.1
20260505031601 51 20 1.7 2.6 0.00 0.00 0.00 32 1297.1
20260505031056 52 102 0.0 0.0 0.00 0.00 0.00 33 1297.0
20260505030554 51 130 0.0 0.0 0.00 0.00 0.00 31 1296.8
20260505030049 50 186 0.9 0.9 0.00 0.00 0.00 35 1297.0
20260505025545 51 272 0.9 0.9 0.00 0.00 0.00 35 1296.8
20260505025044 51 294 0.9 0.9 0.00 0.00 0.00 34 1296.8
20260505024542 53 312 1.7 1.7 0.00 0.00 0.00 31 1296.8
20260505024038 54 312 1.7 1.7 0.00 0.00 0.00 29 1296.7
20260505023535 54 283 0.9 1.7 0.00 0.00 0.00 28 1297.0
20260505023033 54 254 0.9 1.7 0.00 0.00 0.00 28 1296.7
20260505022530 54 279 1.7 3.5 0.00 0.00 0.00 30 1297.0
20260505022027 56 226 0.9 1.7 0.00 0.00 0.00 26 1296.8
20260505021524 56 248 1.7 1.7 0.00 0.00 0.00 26 1296.7
20260505021021 56 206 0.9 0.9 0.00 0.00 0.00 26 1296.6
20260505020520 56 177 0.9 0.9 0.00 0.00 0.00 26 1296.8
20260505020018 56 189 0.0 0.9 0.00 0.00 0.00 26 1296.5
20260505015515 56 257 0.9 0.9 0.00 0.00 0.00 28 1296.8
20260505015012 57 277 0.9 1.7 0.00 0.00 0.00 27 1296.8
20260505014508 57 180 0.0 0.9 0.00 0.00 0.00 26 1296.8
20260505014006 57 199 0.9 1.7 0.00 0.00 0.00 25 1296.6
20260505013503 58 198 0.9 2.6 0.00 0.00 0.00 25 1296.8
20260505013000 58 232 1.7 3.5 0.00 0.00 0.00 23 1296.6
20260505012458 59 248 1.7 3.5 0.00 0.00 0.00 23 1296.6
20260505011955 59 206 2.6 5.2 0.00 0.00 0.00 23 1296.6
20260505011450 59 228 1.7 5.2 0.00 0.00 0.00 23 1296.6
20260505010947 59 253 3.5 6.1 0.00 0.00 0.00 23 1296.8
20260505010443 59 254 4.3 6.1 0.00 0.00 0.00 22 1297.1
20260505005939 59 241 0.9 6.1 0.00 0.00 0.00 23 1296.8
20260505005436 60 255 1.7 5.2 0.00 0.00 0.00 22 1296.7
20260505004934 60 270 1.7 3.5 0.00 0.00 0.00 22 1297.0
20260505004430 60 279 2.6 2.6 0.00 0.00 0.00 20 1296.8
20260505003927 60 187 1.7 2.6 0.00 0.00 0.00 21 1296.7
20260505003425 60 237 3.5 7.0 0.00 0.00 0.00 21 1296.8
20260505002920 60 225 5.2 7.8 0.00 0.00 0.00 20 1297.1
20260505002417 60 298 3.5 5.2 0.00 0.00 0.00 21 1297.1
20260505001916 60 277 3.5 5.2 0.00 0.00 0.00 20 1297.2
20260505001413 60 196 3.5 6.1 0.00 0.00 0.00 19 1297.0
20260505000910 60 272 4.3 7.0 0.00 0.00 0.00 19 1297.1
20260505000408 61 160 1.7 5.2 0.00 0.00 0.00 20 1297.3
20260504235904 61 262 3.5 5.2 0.00 0.00 0.00 20 1297.3
20260504235401 61 294 3.5 6.1 0.00 0.00 0.00 20 1297.2
20260504234857 61 236 5.2 7.0 0.00 0.00 0.00 20 1297.4
20260504234355 61 318 4.3 7.8 0.00 0.00 0.00 20 1297.7
20260504233851 61 265 5.2 7.0 0.00 0.00 0.00 20 1297.6
20260504233347 61 307 3.5 7.0 0.00 0.00 0.00 19 1297.7
20260504232844 61 274 7.0 11.3 0.00 0.00 0.00 19 1297.6
20260504232341 62 257 3.5 9.6 0.00 0.00 0.00 18 1297.7
20260504231838 63 240 10.4 14.8 0.00 0.00 0.00 17 1297.6
20260504231334 63 256 4.3 12.2 0.00 0.00 0.00 17 1297.7
20260504230831 62 242 5.2 9.6 0.00 0.00 0.00 17 1297.7
20260504230329 63 248 5.2 11.3 0.00 0.00 0.00 17 1297.4
20260504225827 62 223 7.0 11.3 0.00 0.00 0.00 19 1297.7
20260504225323 62 236 7.0 11.3 0.00 0.00 0.00 18 1297.6
20260504224821 62 297 6.1 8.7 0.00 0.00 0.00 19 1297.6
20260504224318 62 266 6.1 9.6 0.00 0.00 0.00 19 1297.4
20260504223814 62 268 5.2 8.7 0.00 0.00 0.00 18 1297.6
20260504223310 62 232 6.1 9.6 0.00 0.00 0.00 17 1297.6
20260504222807 62 265 4.3 7.0 0.00 0.00 0.00 17 1297.7
20260504222305 62 250 5.2 7.8 0.00 0.00 0.00 18 1297.8
20260504221801 62 285 7.0 8.7 0.00 0.00 0.00 21 1297.9
20260504221258 62 239 7.0 9.6 0.00 0.00 0.00 22 1297.9
20260504220755 62 232 6.1 7.8 0.00 0.00 0.00 26 1297.8
20260504220252 62 242 3.5 7.8 0.00 0.00 0.00 24 1298.1
20260504215749 62 234 9.6 13.0 0.00 0.00 0.00 25 1298.1
20260504215246 62 182 6.1 11.3 0.00 0.00 0.00 27 1298.1
20260504214741 62 201 10.4 12.2 0.00 0.00 0.00 26 1297.9
20260504214238 61 235 3.5 5.2 0.00 0.00 0.00 27 1297.9
20260504213735 62 259 6.1 9.6 0.00 0.00 0.00 26 1297.9
20260504213231 63 236 5.2 11.3 0.00 0.00 0.00 25 1298.3
20260504212728 62 216 4.3 9.6 0.00 0.00 0.00 27 1298.5
20260504212220 61 227 5.2 9.6 0.00 0.00 0.00 27 1298.7
20260504211717 61 240 7.8 13.0 0.00 0.00 0.00 28 1298.5
20260504211213 61 198 3.5 7.0 0.00 0.00 0.00 29 1298.7
20260504210710 61 198 7.8 11.3 0.00 0.00 0.00 27 1298.8
20260504210207 61 204 6.1 7.0 0.00 0.00 0.00 31 1298.8
20260504205704 61 181 7.8 12.2 0.00 0.00 0.00 29 1298.5
20260504205201 60 209 3.5 6.1 0.00 0.00 0.00 29 1298.9
20260504204700 61 236 5.2 9.6 0.00 0.00 0.00 28 1299.2
20260504204158 61 298 7.0 14.8 0.00 0.00 0.00 28 1299.2
20260504203657 60 189 5.2 7.8 0.00 0.00 0.00 30 1299.2
20260504203154 61 224 6.1 9.6 0.00 0.00 0.00 30 1299.2
20260504202648 61 212 12.2 14.8 0.00 0.00 0.00 29 1299.3
20260504202146 61 247 5.2 9.6 0.00 0.00 0.00 28 1299.5
20260504201643 60 256 3.5 7.8 0.00 0.00 0.00 29 1299.3
20260504201140 60 222 5.2 11.3 0.00 0.00 0.00 30 1299.4
20260504200637 60 218 11.3 13.9 0.00 0.00 0.00 29 1299.5
20260504200134 61 258 5.2 7.0 0.00 0.00 0.00 30 1299.5
20260504195630 60 219 2.6 6.1 0.00 0.00 0.00 30 1299.6
20260504195126 60 236 4.3 7.8 0.00 0.00 0.00 31 1299.9
20260504194623 60 199 10.4 13.9 0.00 0.00 0.00 30 1299.4
20260504194119 60 229 8.7 12.2 0.00 0.00 0.00 30 1299.4
20260504193615 59 221 5.2 7.0 0.00 0.00 0.00 33 1299.6
20260504193114 59 228 7.8 13.9 0.00 0.00 0.00 32 1299.6
20260504192612 59 205 5.2 11.3 0.00 0.00 0.00 33 1299.5
20260504192109 60 221 1.7 5.2 0.00 0.00 0.00 32 1299.5
20260504191608 59 203 7.8 7.8 0.00 0.00 0.00 32 1299.9
20260504191103 59 212 4.3 7.8 0.00 0.00 0.00 34 1299.8
20260504190600 59 197 7.8 11.3 0.00 0.00 0.00 33 1299.9
20260504190056 59 201 12.2 13.0 0.00 0.00 0.00 33 1300.0
20260504185553 58 209 5.2 8.7 0.00 0.00 0.00 35 1299.9
20260504185050 59 191 7.8 9.6 0.00 0.00 0.00 35 1300.0
20260504184545 59 207 3.5 5.2 0.00 0.00 0.00 37 1300.0
20260504184040 59 239 6.1 12.2 0.00 0.00 0.00 35 1300.1
20260504183538 59 216 9.6 11.3 0.00 0.00 0.00 35 1300.1
20260504183036 59 221 7.0 8.7 0.00 0.00 0.00 36 1300.1
20260504182532 59 208 10.4 13.9 0.00 0.00 0.00 37 1300.2
20260504182030 57 205 3.5 5.2 0.00 0.00 0.00 41 1300.5
20260504181527 58 215 5.2 7.8 0.00 0.00 0.00 39 1300.4
20260504181025 58 182 2.6 8.7 0.00 0.00 0.00 41 1300.5
20260504180524 58 236 5.2 7.0 0.00 0.00 0.00 40 1300.5
20260504180022 57 221 3.5 7.0 0.00 0.00 0.00 40 1300.6
20260504175519 58 284 1.7 6.1 0.00 0.00 0.00 41 1300.6
20260504175016 57 182 4.3 6.1 0.00 0.00 0.00 41 1300.5
20260504174514 57 219 7.0 8.7 0.00 0.00 0.00 41 1300.7
20260504174011 57 202 7.8 8.7 0.00 0.00 0.00 42 1300.7
20260504173507 56 235 4.3 6.1 0.00 0.00 0.00 42 1300.6
20260504173005 56 215 7.0 7.8 0.00 0.00 0.00 43 1300.9
20260504172500 56 213 3.5 9.6 0.00 0.00 0.00 42 1300.9
20260504171957 56 203 3.5 5.2 0.00 0.00 0.00 44 1300.9
20260504171454 57 184 5.2 8.7 0.00 0.00 0.00 43 1300.6
20260504170951 56 182 1.7 6.1 0.00 0.00 0.00 42 1300.7
20260504170447 57 166 3.5 7.8 0.00 0.00 0.00 44 1300.5
20260504160407 54 197 2.6 5.2 0.00 0.00 0.00 46 1301.0
20260504150831 54 121 0.9 1.7 0.00 0.00 0.00 46 1301.1
20260504150328 53 69 0.9 1.7 0.00 0.00 0.00 49 1301.2
20260504141258 50 311 1.7 3.5 0.00 0.00 0.00 58 1301.2
20260504140754 49 316 0.9 1.7 0.00 0.00 0.00 62 1301.0
20260504140250 49 281 1.7 1.7 0.00 0.00 0.00 61 1301.2
20260504130719 45 3 0.0 0.9 0.00 0.00 0.00 66 1300.7
20260504130214 44 348 1.7 2.6 0.00 0.00 0.00 68 1300.7